Regional Weather Roundup
Issued by NWS Green Bay, WI

Home | Current Version | Previous Version | Text Only | Print | Product List | Glossary On
Versions: 1 2 3 4 5 6 7 8 9 10 11 12 13 14 15 16 17 18 19 20 21 22 23 24 25 26 27 28 29 30 31 32 33 34 35 36 37 38 39 40 41 42 43 44 45 46 47 48 49 50
000
ASUS43 KGRB 161511
RWRGRB

NORTH-CENTRAL AND NORTHEAST WISCONSIN REGIONAL WEATHER ROUNDUP
NATIONAL WEATHER SERVICE GREEN BAY WI
900 AM CST SAT DEC 16 2017

WIZ005-009-010>012-018-019-161600-
NORTH CENTRAL WISCONSIN

CITY           SKY/WX    TMP DP  RH WIND       PRES   REMARKS
IRONWOOD       CLOUDY    14   8  77 E9        29.92R WCI   2
MANITOWISH WTR CLOUDY    11   7  83 CALM      29.88R
ARBOR VITAE    CLOUDY    13   8  79 SE6       29.87R WCI   4
EAGLE RIVER    CLOUDY    12   5  74 E5        29.87R WCI   4
LAND O LAKES   CLOUDY    13   7  76 SE3       29.90R
RHINELANDER    CLOUDY    11   6  81 E10       29.87R WCI  -3
PHILLIPS       CLOUDY    14   7  74 E9        29.87R WCI   1
ANTIGO         CLOUDY    14   5  69 E9        29.89R WCI   1
TOMAHAWK       CLOUDY    14   8  78 E3        29.89R
MERRILL        CLOUDY    15   8  72 E8        29.89R WCI   4
$$

WIZ013-073-161600-
NORTHEAST WISCONSIN

CITY           SKY/WX    TMP DP  RH WIND       PRES   REMARKS
IRON MOUNTAIN  CLOUDY     9   5  84 CALM      29.93R
MARINETTE      CLOUDY    17  10  74 N6        29.98  WCI   9
OCONTO         CLOUDY    17   8  70 N6        29.97R WCI   8
$$

WIZ017-030-035>037-045-161600-
CENTRAL WISCONSIN

CITY           SKY/WX    TMP DP  RH WIND       PRES   REMARKS
MEDFORD        CLOUDY    15  10  80 E13       29.84S WCI   0
WAUSAU         CLOUDY    15   8  73 E9        29.88R WCI   3
MOSINEE        CLOUDY    16  10  79 E10G17    29.89R WCI   3
MARSHFIELD     CLOUDY    16  12  84 E14       29.85R WCI   2
WISC RAPIDS    CLOUDY    18  12  77 E12       29.90R WCI   5
STEVENS POINT  CLOUDY    15  10  83 E8G16     29.90R WCI   4
WAUPACA        CLOUDY    20  15  79 NE5       29.93R
SHAWANO        CLOUDY    18   9  68 NE6       29.94S WCI   9
CLINTONVILLE   NOT AVBL
WAUTOMA        CLOUDY    19  15  84 E10       29.90R WCI   7
$$

WIZ038-039-048-051-161600-
FOX VALLEY

CITY           SKY/WX    TMP DP  RH WIND       PRES   REMARKS
NWS GREEN BAY  CLOUDY    21  12  68 NE10      29.94R WCI  10
APPLETON       CLOUDY    19  12  73 NE12      29.89R WCI   7
OSHKOSH        CLOUDY    21  18  88 NE10      29.90R WCI  10
FOND DU LAC    CLOUDY    24  19  81 NE8       29.89R
$$

WIZ022-050-052-161600-
EAST CENTRAL WISCONSIN

CITY           SKY/WX    TMP DP  RH WIND       PRES   REMARKS
EPHRAIM        CLOUDY    20  12  72 NE6       29.94R
WASHINGTON ISL PTSUNNY   21  13  72 NE6       29.97R
STURGEON BAY   CLOUDY    21  13  71 NE7       29.96R
MANITOWOC      MIX PCPN  21  19  92 N6        29.94R
SHEBOYGAN      CLOUDY    28  26  92 NE10      29.91R
$$

LMZ563-521-522-541>543-161600-
LAKESHORE

STATION/POSITION TIME  TEMP    WIND        PRES    VSBY  WAVE
                       AIR SEA DIR/SP/G                  HT/PER
                 (UTC) (F)     (DEG/KT/KT) (MB)    (MI)  (FT/S)
SHEBOYGAN LKSHOR 1500   30      70/ 14/ 16 1013.7R
KEWAUNEE LKSHORE 1412   21     330/  3/  6 1012.7
NORTHPORT PIER   1440   23      20/  5/  8 1014.9R
MENOMINEE LKSHOR 1406   20     360/ 11/ 14 1013.8
$$




USA.gov is the U.S. government's official web portal to all federal, state and local government web resources and services.